Aberdeen / Amory, MS

7:53 AM CDT on July 21, 2017 (GMT -0500)
Aberdeen / Amory

Weather History for KM40 - January, 2013

Change the Weather History Date:

Friday, January 4, 2013

  Actual Average (KCBM) Record (KCBM)
Temperature  
Mean Temperature 38 °F -  
Max Temperature 53 °F 52 °F 77 °F (1997)
Min Temperature 24 °F 35 °F 12 °F (1999)
Degree Days  
Heating Degree Days 26    
Moisture  
Dew Point 30 °F    
Average Humidity 77    
Maximum Humidity 93    
Minimum Humidity 54    
Precipitation  
Precipitation 0.00 in - - ()
Sea Level Pressure  
Sea Level Pressure 30.44 in    
Wind  
Wind Speed 2 mph (NNW)    
Max Wind Speed 7 mph    
Max Gust Speed -    
Visibility 9 miles    
Events      
Averages and records for this station are not official NWS values.
T = Trace of Precipitation, MM = Missing Value Source: NWS Daily Summary

Daily Weather History Graph

Daily Weather History Graph

Search for Another Location

Airport or City:

Trip Planner

Search our weather history database for the weather conditions in past years. The results will help you decide how hot, cold, wet, or windy it might be!

Date:

Astronomy

Jan. 04, 2013 Rise Set
Actual Time 6:59 AM CST 4:58 PM CST
Civil Twilight 6:32 AM CST 5:26 PM CST
Nautical Twilight 6:01 AM CST 5:57 PM CST
Astronomical Twilight 5:30 AM CST 6:27 PM CST
Moon No Moon Rise 11:03 AM CST (1/4)
Length of Visible Light 10h 54m
Length of Day
9h 59m
Waning Gibbous, 55% of the Moon is Illuminated
Jan 4
Waning Gibbous
Jan 4
Last Quarter
Jan 11
New
Jan 18
First Quarter
Jan 26
Full

Hourly Weather History & Observations

Time (CST) Temp. Windchill Dew Point Humidity Pressure Visibility Wind Dir Wind Speed Gust Speed Precip Events Conditions
12:15 AM 32.0 °F 28.7 °F 28.4 °F 87% 30.42 in 10.0 mi North 3.5 mph - N/A   Clear
12:35 AM 32.0 °F 28.7 °F 28.4 °F 87% 30.41 in 10.0 mi North 3.5 mph - N/A   Clear
12:55 AM 32.0 °F - 28.4 °F 87% 30.42 in 10.0 mi North - - N/A   Clear
1:15 AM 30.2 °F - 26.6 °F 86% 30.42 in 10.0 mi North - - N/A   Clear
1:35 AM 30.2 °F - 26.6 °F 86% 30.43 in 10.0 mi North - - N/A   Clear
1:55 AM 28.4 °F - 26.6 °F 93% 30.42 in 10.0 mi North - - N/A   Clear
2:15 AM 26.6 °F - 24.8 °F 93% 30.43 in 10.0 mi Calm Calm - N/A   Clear
2:55 AM 26.6 °F - 24.8 °F 93% 30.43 in 10.0 mi Calm Calm - N/A   Clear
3:15 AM 26.6 °F - 24.8 °F 93% 30.43 in 9.0 mi North - - N/A   Clear
5:55 AM 24.8 °F - 23.0 °F 93% 30.44 in 7.0 mi Calm Calm - N/A   Clear
6:15 AM 26.6 °F - 23.0 °F 86% 30.44 in 8.0 mi Calm Calm - N/A   Clear
6:35 AM 26.6 °F - 23.0 °F 86% 30.45 in 9.0 mi Calm Calm - N/A   Clear
6:55 AM 26.6 °F - 23.0 °F 86% 30.45 in 8.0 mi Calm Calm - N/A   Clear
7:15 AM 24.8 °F - 23.0 °F 93% 30.46 in 7.0 mi North - - N/A   Clear
7:35 AM 26.6 °F 22.6 °F 23.0 °F 86% 30.47 in 8.0 mi North 3.5 mph - N/A   Clear
7:55 AM 30.2 °F 26.7 °F 26.6 °F 86% 30.47 in 7.0 mi NNE 3.5 mph - N/A   Clear
8:15 AM 32.0 °F 28.7 °F 28.4 °F 87% 30.48 in 6.0 mi North 3.5 mph - N/A   Clear
8:35 AM 32.0 °F - 30.2 °F 93% 30.48 in 7.0 mi Calm Calm - N/A   Clear
8:55 AM 33.8 °F - 32.0 °F 93% 30.49 in 7.0 mi Calm Calm - N/A   Clear
9:15 AM 37.4 °F - 32.0 °F 81% 30.49 in 8.0 mi Calm Calm - N/A   Clear
9:35 AM 39.2 °F - 32.0 °F 75% 30.49 in 8.0 mi Calm Calm - N/A   Clear
9:55 AM 42.8 °F - 33.8 °F 70% 30.50 in 9.0 mi Calm Calm - N/A   Clear
10:15 AM 44.6 °F 43.1 °F 35.6 °F 71% 30.51 in 9.0 mi North 3.5 mph - N/A   Clear
10:35 AM 44.6 °F 42.2 °F 35.6 °F 71% 30.51 in 9.0 mi North 4.6 mph - N/A   Clear
10:55 AM 46.4 °F 44.3 °F 35.6 °F 66% 30.50 in 9.0 mi NNW 4.6 mph - N/A   Clear
11:15 AM 48.2 °F - 35.6 °F 62% 30.49 in 10.0 mi NNW 4.6 mph - N/A   Clear
11:35 AM 48.2 °F - 35.6 °F 62% 30.48 in 9.0 mi North 5.8 mph - N/A   Clear
11:55 AM 50.0 °F - 37.4 °F 62% 30.46 in 9.0 mi NNE 3.5 mph - N/A   Clear
12:15 PM 50.0 °F - 37.4 °F 62% 30.45 in 10.0 mi North 6.9 mph - N/A   Clear
12:55 PM 51.8 °F - 37.4 °F 58% 30.43 in 9.0 mi North 4.6 mph - N/A   Clear
1:15 PM 51.8 °F - 37.4 °F 58% 30.42 in 10.0 mi NW 3.5 mph - N/A   Clear
1:35 PM 53.6 °F - 37.4 °F 54% 30.41 in 9.0 mi North 5.8 mph - N/A   Clear
1:55 PM 53.6 °F - 37.4 °F 54% 30.41 in 9.0 mi NNW 5.8 mph - N/A   Clear
2:15 PM 53.6 °F - 37.4 °F 54% 30.40 in 9.0 mi NNW 4.6 mph - N/A   Clear
2:35 PM 53.6 °F - 37.4 °F 54% 30.40 in 9.0 mi North 6.9 mph - N/A   Clear
2:55 PM 53.6 °F - 37.4 °F 54% 30.40 in 10.0 mi North 6.9 mph - N/A   Clear
3:15 PM 51.8 °F - 37.4 °F 58% 30.41 in 9.0 mi NW 6.9 mph - N/A   Clear
3:35 PM 51.8 °F - 35.6 °F 54% 30.41 in 10.0 mi NNW 6.9 mph - N/A   Clear
4:15 PM 48.2 °F - 33.8 °F 58% 30.41 in 9.0 mi NW 5.8 mph - N/A   Clear
4:35 PM 44.6 °F 43.1 °F 33.8 °F 66% 30.41 in 9.0 mi WNW 3.5 mph - N/A   Clear
4:55 PM 42.8 °F - 32.0 °F 66% 30.42 in 9.0 mi Calm Calm - N/A   Clear
5:15 PM 39.2 °F - 30.2 °F 70% 30.42 in 10.0 mi Calm Calm - N/A   Clear
5:35 PM 37.4 °F - 30.2 °F 75% 30.42 in 10.0 mi North - - N/A   Clear
5:55 PM 37.4 °F - 30.2 °F 75% 30.43 in 10.0 mi Calm Calm - N/A   Clear
6:15 PM 35.6 °F - 28.4 °F 75% 30.43 in 10.0 mi Calm Calm - N/A   Clear
6:55 PM 33.8 °F - 28.4 °F 81% 30.43 in 10.0 mi Calm Calm - N/A   Clear
7:15 PM 32.0 °F - 28.4 °F 87% 30.42 in 10.0 mi Calm Calm - N/A   Clear
7:35 PM 32.0 °F - 28.4 °F 87% 30.43 in 10.0 mi North - - N/A   Clear
7:55 PM 32.0 °F - 28.4 °F 87% 30.42 in 10.0 mi North - - N/A   Clear
8:15 PM 32.0 °F - 26.6 °F 80% 30.43 in 10.0 mi Calm Calm - N/A   Clear
8:35 PM 32.0 °F - 26.6 °F 80% 30.42 in 10.0 mi Calm Calm - N/A   Clear
9:15 PM 32.0 °F - 28.4 °F 87% 30.43 in 10.0 mi Calm Calm - N/A   Clear
9:35 PM 30.2 °F - 26.6 °F 86% 30.42 in 9.0 mi Calm Calm - N/A   Clear
9:55 PM 30.2 °F - 26.6 °F 86% 30.42 in 10.0 mi Calm Calm - N/A   Clear
10:15 PM 30.2 °F - 26.6 °F 86% 30.42 in 10.0 mi Calm Calm - N/A   Clear
10:35 PM 30.2 °F - 26.6 °F 86% 30.42 in 9.0 mi Calm Calm - N/A   Clear
10:55 PM 30.2 °F - 26.6 °F 86% 30.42 in 10.0 mi Calm Calm - N/A   Clear
11:15 PM 30.2 °F - 26.6 °F 86% 30.42 in 9.0 mi Calm Calm - N/A   Clear
11:35 PM 28.4 °F - 26.6 °F 93% 30.41 in 10.0 mi North - - N/A   Clear
11:55 PM 30.2 °F - 26.6 °F 86% 30.41 in 10.0 mi Calm Calm - N/A   Clear